User: anonymous   Login
Location: Maiden_LMO
(35.5760°N, 81.2120°W)
Time: 15:50:21
(UTC-04:00)
Language:

Cosmos 2278 Rocket - Orbit

View from above orbital plane
View from above orbital plane
View from above satellite
View from above satellite

Ground track
Ground track

The orbit data is extracted from the following two-line orbital elements,

1 23088U 94023B   16118.92249236 +.00000091 +00000-0 +72191-4 0  9997
2 23088 070.9992 073.6275 0003427 334.7663 025.3292 14.14636330136540
Epoch (UTC): 27 April 2016 22:08:23
Eccentricity: 0.0003427
inclination: 70.9992°
perigee height: 841 km
apogee height: 846 km
right ascension of ascending node: 73.6275°
argument of perigee: 334.7663°
revolutions per day: 14.14636330
mean anomaly at epoch: 25.3292°
orbit number at epoch: 13654

The dashed part of the orbit path shows where the satellite is in the earth's shadow,  

DLR